Location: Lichtensteig
(47.3376°N, 9.0841°E)
Time: 20:20:00
(UTC+00:00)

FENGYUN 1C DEB - Pass Details

Date: 26 September 2021
Orbit: 837 x 877 km, 98.7° (Epoch: 18 October)

Event Time Altitude Azimuth Distance (km) Brightness Sun altitude
Rises 19:39:45 0° 225° (SW) 3,459 ? -24.9°
Reaches altitude 10° 19:44:28 10° 262° (W) 2,532 ? -25.6°
Maximum altitude 19:45:49 11° 276° (W) 2,477 ? -25.8°
Drops below altitude 10° 19:47:09 10° 290° (WNW) 2,537 ? -26.0°
Sets 19:51:56 0° 326° (NW) 3,482 ? -26.7°
